Location: Franzen
(48.6167°N, 15.3833°E)
Time: 07:30:59
(UTC+00:00)

Transit 2A - Pass Details

Date: 10 August 2021
Orbit: 594 x 964 km, 66.7° (Epoch: 24 September)

Event Time Altitude Azimuth Distance (km) Brightness Sun altitude
Rises 08:47:05 0° 324° (NW) 3,143 8.8 46.6°
Reaches altitude 10° 08:50:25 10° 348° (NNW) 2,300 8.3 47.1°
Maximum altitude 08:53:28 15° 24° (NNE) 2,029 8.2 47.4°
Drops below altitude 10° 08:56:39 10° 58° (ENE) 2,443 8.9 47.8°
Sets 09:00:22 0° 81° (E) 3,457 9.7 48.3°
